FW1075 Weather Reports


Display with metric or nautical units.
time (UTC)temp
F
wind
direction
speed
MPH
gust
MPH
rain 1hr
in
rain 24hr
in
rain mn
in
humidity
%
barometer
mb
20260831080146 71 321 1.0 3.0 0.00 0.01 0.00 92 1016.8
20260831075126 71 322 1.0 4.0 0.00 0.01 0.00 92 1016.8
20260831074121 71 307 2.0 4.0 0.00 0.01 0.00 92 1016.8
20260831073121 71 350 2.0 4.0 0.00 0.01 0.00 93 1017.0
20260831072121 71 321 1.0 2.0 0.00 0.01 0.00 93 1017.0
20260831071121 71 360 1.0 3.0 0.00 0.01 0.00 93 1017.0
20260831070121 71 326 2.0 3.0 0.00 0.01 0.00 93 1017.0
20260831065122 71 293 1.0 3.0 0.00 0.01 0.00 94 1016.9
20260831064121 70 24 1.0 2.0 0.00 0.01 0.00 96 1016.8
20260831063142 70 291 0.0 3.0 0.00 0.01 0.00 96 1016.8
20260831062121 71 281 0.0 2.0 0.00 0.01 0.00 97 1016.8
20260831061121 71 282 1.0 3.0 0.00 0.01 0.00 97 1016.9
20260831060121 71 292 1.0 3.0 0.00 0.01 0.00 97 1016.9
20260831055121 71 293 1.0 3.0 0.00 0.01 0.00 98 1016.9
20260831054144 71 292 0.0 3.0 0.00 0.01 0.00 99 1016.9
20260831053121 71 3 0.0 2.0 0.00 0.01 0.00 99 1016.9
20260831052123 72 223 0.0 1.0 0.00 0.01 0.00 99 1017.0
20260831051121 72 262 0.0 2.0 0.00 0.01 0.00 99 1017.0
20260831050122 72 287 0.0 2.0 0.00 0.01 0.00 99 1017.0
20260831045122 73 3 0.0 2.0 0.00 0.01 0.00 99 1016.9
20260831044123 73 311 0.0 3.0 0.00 0.01 0.00 99 1016.9
20260831043122 73 337 0.0 1.0 0.00 0.01 0.00 99 1016.7
20260831042124 73 257 1.0 2.0 0.00 0.01 0.00 98 1016.6
20260831041122 73 299 3.0 5.0 0.00 0.01 0.00 99 1016.6
20260831040122 73 324 3.0 5.0 0.00 0.01 0.00 99 1016.6
20260831035123 73 299 2.0 5.0 0.00 0.01 0.01 99 1016.6
20260831034121 73 301 1.0 3.0 0.00 0.01 0.01 99 1016.6
20260831033121 73 322 2.0 3.0 0.00 0.01 0.01 99 1016.6
20260831032121 72 330 1.0 2.0 0.00 0.01 0.01 99 1016.5
20260831031121 73 337 0.0 1.0 0.00 0.01 0.01 99 1016.6
20260831030121 73 334 0.0 1.0 0.01 0.01 0.01 99 1016.6
20260831025123 73 293 0.0 0.0 0.01 0.01 0.01 99 1016.9
20260831024144 73 337 2.0 3.0 0.01 0.01 0.01 99 1017.1
20260831023122 73 327 2.0 4.0 0.01 0.01 0.01 99 1017.2
20260831022121 73 313 2.0 4.0 0.01 0.01 0.01 99 1017.2
20260831021121 74 317 1.0 3.0 0.01 0.01 0.01 99 1017.2
20260831020144 74 360 0.0 2.0 0.00 0.00 0.00 99 1017.2
20260831015124 75 45 0.0 0.0 0.00 0.00 0.00 99 1017.2
20260831014121 75 314 0.0 2.0 0.00 0.00 0.00 99 1017.1
20260831013121 75 311 1.0 4.0 0.00 0.00 0.00 99 1016.9
20260831012122 75 247 0.0 2.0 0.00 0.00 0.00 99 1016.8
20260831011121 75 247 0.0 1.0 0.00 0.00 0.00 99 1016.8
20260831010122 75 215 0.0 2.0 0.00 0.00 0.00 99 1016.8
20260831005123 75 239 1.0 2.0 0.00 0.00 0.00 99 1016.6
20260831004123 76 243 2.0 4.0 0.00 0.00 0.00 98 1016.5
20260831003143 76 223 1.0 4.0 0.00 0.00 0.00 96 1016.4
20260831002124 76 226 2.0 4.0 0.00 0.00 0.00 94 1016.2
20260831001143 77 259 2.0 4.0 0.00 0.00 0.00 92 1016.2
20260831000122 77 232 1.0 3.0 0.00 0.00 0.00 91 1016.2
20260830235143 77 215 1.0 3.0 0.00 0.00 0.00 90 1016.1
20260830234121 77 251 2.0 5.0 0.00 0.00 0.00 90 1016.1
20260830233121 77 230 1.0 4.0 0.00 0.00 0.00 90 1016.1
20260830232121 77 221 1.0 3.0 0.00 0.00 0.00 90 1016.0
20260830231121 77 240 2.0 3.0 0.00 0.00 0.00 89 1016.0
20260830230121 78 245 1.0 3.0 0.00 0.00 0.00 89 1016.0
20260830225122 78 214 1.0 3.0 0.00 0.00 0.00 88 1016.0
20260830224121 78 224 2.0 4.0 0.00 0.00 0.00 87 1015.9
20260830223121 78 220 2.0 5.0 0.00 0.00 0.00 87 1016.2
20260830222122 79 245 2.0 4.0 0.00 0.00 0.00 85 1016.2
20260830221142 79 251 2.0 4.0 0.00 0.00 0.00 84 1016.4
20260830220122 80 192 2.0 4.0 0.00 0.00 0.00 83 1016.4
20260830215121 80 212 2.0 3.0 0.00 0.00 0.00 82 1016.2
20260830214123 81 221 3.0 4.0 0.00 0.00 0.00 80 1016.2
20260830213142 80 244 2.0 5.0 0.00 0.00 0.00 81 1016.2
20260830212123 80 222 3.0 5.0 0.00 0.00 0.00 81 1016.2
20260830211122 80 244 2.0 4.0 0.00 0.00 0.00 82 1016.5
20260830210124 80 194 3.0 5.0 0.00 0.00 0.00 83 1016.5
20260830205122 79 227 3.0 5.0 0.00 0.00 0.00 84 1016.5
20260830204122 79 228 3.0 5.0 0.00 0.00 0.00 84 1016.5
20260830203123 79 218 3.0 6.0 0.00 0.00 0.00 84 1016.7
20260830202143 79 242 3.0 7.0 0.00 0.00 0.00 82 1016.7
20260830201143 79 185 3.0 6.0 0.00 0.00 0.00 81 1016.9
20260830200122 79 251 3.0 7.0 0.00 0.00 0.00 81 1016.9
20260830195143 80 245 4.0 6.0 0.00 0.00 0.00 80 1016.8
20260830194144 79 205 4.0 9.0 0.00 0.00 0.00 79 1017.0
20260830193121 79 235 3.0 6.0 0.00 0.00 0.00 80 1017.1
20260830192121 78 228 4.0 7.0 0.00 0.00 0.00 79 1017.4
20260830191121 80 295 3.0 5.0 0.00 0.00 0.00 77 1017.6
20260830190121 79 262 3.0 5.0 0.00 0.00 0.00 77 1017.6
20260830185121 78 222 4.0 7.0 0.00 0.00 0.00 77 1017.8
20260830184121 79 247 3.0 7.0 0.00 0.00 0.00 75 1017.9
20260830183124 80 192 3.0 8.0 0.00 0.00 0.00 74 1018.0
20260830182144 80 253 4.0 6.0 0.00 0.00 0.00 72 1018.2
20260830181121 80 254 4.0 6.0 0.00 0.00 0.00 73 1018.2
20260830180122 80 257 4.0 7.0 0.00 0.00 0.00 71 1018.2
20260830175142 80 243 4.0 7.0 0.00 0.00 0.00 70 1018.2
20260830174121 80 234 3.0 7.0 0.00 0.00 0.00 71 1018.4
20260830173121 80 226 4.0 8.0 0.00 0.00 0.00 72 1018.5
20260830172123 81 248 3.0 6.0 0.00 0.00 0.00 71 1018.5
20260830171123 81 232 4.0 6.0 0.00 0.00 0.00 70 1018.7
20260830170123 81 251 4.0 8.0 0.00 0.00 0.00 70 1018.7
20260830165143 84 252 4.0 7.0 0.00 0.00 0.00 66 1018.8
20260830164122 83 220 4.0 7.0 0.00 0.00 0.00 68 1018.8
20260830163122 82 261 5.0 9.0 0.00 0.00 0.00 68 1019.1
20260830162143 82 243 4.0 9.0 0.00 0.00 0.00 66 1019.1
20260830161122 83 247 4.0 7.0 0.00 0.00 0.00 64 1019.2
20260830160124 82 214 4.0 6.0 0.00 0.00 0.00 66 1019.2
20260830155145 81 258 4.0 8.0 0.00 0.00 0.00 68 1019.2
20260830154121 81 250 5.0 8.0 0.00 0.00 0.00 66 1019.5
20260830153121 82 259 4.0 7.0 0.00 0.00 0.00 65 1019.6
20260830152121 80 247 5.0 8.0 0.00 0.00 0.00 67 1019.7
20260830151142 79 243 5.0 11.0 0.00 0.00 0.00 67 1019.9
20260830150142 81 247 5.0 8.0 0.00 0.00 0.00 64 1019.9
20260830145121 82 253 4.0 6.0 0.00 0.00 0.00 64 1019.8
20260830144142 81 258 4.0 8.0 0.00 0.00 0.00 63 1019.9
20260830143142 81 254 4.0 7.0 0.00 0.00 0.00 60 1019.9
20260830142121 80 260 4.0 9.0 0.00 0.00 0.00 57 1020.0
20260830141121 80 246 4.0 9.0 0.00 0.00 0.00 58 1020.2
20260830140121 79 226 4.0 7.0 0.00 0.00 0.00 61 1020.2
20260830135121 79 261 4.0 6.0 0.00 0.00 0.00 63 1020.4
20260830134122 78 229 4.0 7.0 0.00 0.00 0.00 63 1020.5
20260830133123 78 257 4.0 7.0 0.00 0.00 0.00 65 1020.6
20260830132125 77 249 4.0 7.0 0.00 0.00 0.00 67 1020.6
20260830131123 77 267 4.0 7.0 0.00 0.00 0.00 67 1020.6
20260830130122 75 234 4.0 7.0 0.00 0.00 0.00 69 1020.6
20260830125122 75 217 3.0 5.0 0.00 0.00 0.00 71 1020.7
20260830124122 73 250 2.0 3.0 0.00 0.00 0.00 77 1020.9
20260830123122 73 268 3.0 5.0 0.00 0.00 0.00 75 1020.9
20260830122122 73 213 2.0 5.0 0.00 0.00 0.00 78 1020.8
20260830121122 71 247 2.0 4.0 0.00 0.00 0.00 83 1020.8
20260830120143 70 247 0.0 2.0 0.00 0.00 0.00 88 1020.8
20260830115143 68 180 0.0 0.0 0.00 0.00 0.00 93 1020.7
20260830114121 68 225 0.0 0.0 0.00 0.00 0.00 93 1020.7
20260830113121 67 154 0.0 2.0 0.00 0.00 0.00 95 1020.7
20260830112121 64 169 0.0 2.0 0.00 0.00 0.00 99 1020.7
20260830111121 64 203 0.0 0.0 0.00 0.00 0.00 99 1020.7
20260830110121 63 203 0.0 0.0 0.00 0.00 0.00 99 1020.7
20260830105122 63 203 0.0 0.0 0.00 0.00 0.00 99 1020.6
20260830104121 63 270 0.0 0.0 0.00 0.00 0.00 99 1020.5
20260830103121 63 180 0.0 0.0 0.00 0.00 0.00 99 1020.6
20260830102121 63 113 0.0 0.0 0.00 0.00 0.00 98 1020.5
20260830101122 63 270 0.0 0.0 0.00 0.00 0.00 98 1020.5
20260830100142 63 203 0.0 0.0 0.00 0.00 0.00 97 1020.5
20260830095121 63 113 0.0 0.0 0.00 0.00 0.00 95 1020.6
20260830094144 63 180 0.0 0.0 0.00 0.00 0.00 95 1020.7
20260830093121 64 180 0.0 0.0 0.00 0.00 0.00 97 1020.6
20260830092121 64 113 0.0 0.0 0.00 0.00 0.00 94 1020.6
20260830091142 65 158 0.0 0.0 0.00 0.00 0.00 95 1020.6
20260830090123 65 270 0.0 3.0 0.00 0.00 0.00 95 1020.6
20260830085122 65 265 1.0 3.0 0.00 0.00 0.00 95 1020.7
20260830084121 65 270 1.0 4.0 0.00 0.00 0.00 95 1020.8
20260830083122 66 219 1.0 2.0 0.00 0.00 0.00 95 1020.8
20260830082144 66 252 1.0 4.0 0.00 0.00 0.00 95 1020.7
20260830081122 66 250 2.0 4.0 0.00 0.00 0.00 95 1021.0